Starlink 31561

operational
NORAD ID: 59352 Int'l Des: 2024-060 Owner: SPXS Country: US Constellation: starlink
LEOCIRCULAR

About Starlink 31561

Description loading...

Live Position

Loading 3D Globe...

Upcoming Passes

Altitude History

Altitude vs Time

uPlot chart will show altitude changes over time

Two-Line Element Set

1 59352U 24060E 25352.38769929 -.00002144 00000-0 -68397-4 0 9996
2 59352 43.0020 358.5899 0001519 254.6851 105.3833 15.27588852 97638
Epoch: Dec 18, 2025 • Age: 19 hours

Current Status

Altitude 484.9 km
Velocity 7.62 km/s
Sub-Earth Point -11.60°S, 167.4°W
Launch Date Mar 31, 2024
Age 1.7 years
Type internet

Technical Details

Classification Payload
Mass 730.00 kg
Dry Mass 700.00 kg
Total Mass 730.00 kg
Length 0.30 m
Diameter 4.10 m
Span 29.00 m
Shape Box + pan
Manufacturer SPXS
Bus Type Starlink V2M
Phase Status In Orbit
Owner/State SPXS/US

Large Constellations

Loading constellations...